| time (UTC) | temp F | wind direction | speed knots | gust knots | rain 1hr in | rain 24hr in | rain mn in | humidity % | barometer mb |
| 20260508040033 | 47 | 109 | 0.0 | 0.0 | 0.00 | 0.00 | 0.00 | 90 | 1013.3 |
| 20260508034541 | 47 | 109 | 0.0 | 0.0 | 0.00 | 0.00 | 0.00 | 90 | 1013.3 |
| 20260508033031 | 47 | 109 | 0.0 | 1.7 | 0.00 | 0.00 | 0.00 | 91 | 1013.3 |
| 20260508031530 | 47 | 111 | 0.0 | 1.7 | 0.00 | 0.00 | 0.00 | 91 | 1013.5 |
| 20260508030029 | 48 | 111 | 0.0 | 0.0 | 0.00 | 0.00 | 0.00 | 92 | 1013.4 |
| 20260508024534 | 48 | 111 | 0.0 | 0.9 | 0.00 | 0.00 | 0.00 | 92 | 1013.5 |
| 20260508023030 | 48 | 111 | 0.0 | 0.0 | 0.00 | 0.00 | 0.00 | 92 | 1013.4 |
| 20260508021526 | 48 | 111 | 0.0 | 1.7 | 0.00 | 0.00 | 0.00 | 92 | 1013.3 |
| 20260508020025 | 48 | 111 | 0.0 | 1.7 | 0.00 | 0.00 | 0.00 | 93 | 1013.2 |
| 20260508014525 | 48 | 103 | 0.0 | 0.0 | 0.00 | 0.00 | 0.00 | 94 | 1013.2 |
| 20260508013024 | 48 | 89 | 0.0 | 0.0 | 0.00 | 0.00 | 0.00 | 94 | 1013.3 |
| 20260508011533 | 48 | 55 | 0.0 | 0.0 | 0.00 | 0.00 | 0.00 | 94 | 1013.4 |
| 20260508010020 | 48 | 55 | 0.0 | 0.0 | 0.00 | 0.00 | 0.00 | 94 | 1013.5 |
| 20260508004525 | 48 | 325 | 0.0 | 0.0 | 0.00 | 0.00 | 0.00 | 94 | 1013.5 |
| 20260508003018 | 49 | 325 | 0.0 | 0.0 | 0.00 | 0.00 | 0.00 | 93 | 1013.5 |
| 20260508001517 | 49 | 325 | 0.0 | 0.0 | 0.00 | 0.00 | 0.00 | 93 | 1013.3 |
| 20260508000015 | 49 | 69 | 0.0 | 0.0 | 0.00 | 0.00 | 0.00 | 93 | 1013.4 |
| 20260507234519 | 49 | 69 | 0.0 | 0.0 | 0.00 | 0.00 | 0.00 | 93 | 1013.4 |
| 20260507233016 | 49 | 69 | 0.0 | 0.0 | 0.00 | 0.00 | 0.00 | 92 | 1013.5 |
| 20260507231516 | 49 | 75 | 0.0 | 0.0 | 0.00 | 0.00 | 0.00 | 91 | 1013.5 |
| 20260507230006 | 50 | 75 | 0.0 | 0.0 | 0.00 | 0.00 | 0.00 | 91 | 1013.4 |
| 20260507224507 | 49 | 75 | 0.0 | 0.0 | 0.00 | 0.00 | 0.00 | 91 | 1013.5 |
| 20260507223004 | 50 | 75 | 0.0 | 0.0 | 0.00 | 0.00 | 0.00 | 91 | 1013.5 |
| 20260507221509 | 50 | 75 | 0.0 | 0.0 | 0.00 | 0.00 | 0.00 | 90 | 1013.5 |
| 20260507220002 | 50 | 75 | 0.0 | 0.0 | 0.00 | 0.00 | 0.00 | 89 | 1013.4 |
| 20260507214503 | 50 | 75 | 0.0 | 0.0 | 0.00 | 0.00 | 0.00 | 89 | 1013.4 |
| 20260507213003 | 51 | 75 | 0.0 | 0.0 | 0.00 | 0.00 | 0.00 | 88 | 1013.5 |
| 20260507211505 | 51 | 75 | 0.0 | 0.0 | 0.00 | 0.00 | 0.00 | 87 | 1013.4 |
| 20260507210100 | 51 | 75 | 0.0 | 0.0 | 0.00 | 0.00 | 0.00 | 86 | 1013.2 |
| 20260507204605 | 51 | 75 | 0.0 | 0.0 | 0.00 | 0.00 | 0.00 | 85 | 1013.2 |
| 20260507203108 | 51 | 75 | 0.0 | 0.0 | 0.00 | 0.00 | 0.00 | 85 | 1013.1 |
| 20260507201605 | 51 | 74 | 0.0 | 0.0 | 0.00 | 0.00 | 0.00 | 84 | 1013.0 |
| 20260507200059 | 52 | 74 | 0.0 | 0.0 | 0.00 | 0.00 | 0.00 | 83 | 1012.9 |
| 20260507194559 | 52 | 74 | 0.0 | 0.0 | 0.00 | 0.00 | 0.00 | 84 | 1012.8 |
| 20260507193102 | 52 | 74 | 0.0 | 0.0 | 0.00 | 0.00 | 0.00 | 84 | 1012.7 |
| 20260507191558 | 53 | 74 | 0.0 | 1.7 | 0.00 | 0.00 | 0.00 | 83 | 1012.6 |
| 20260507190057 | 53 | 16 | 0.9 | 2.6 | 0.00 | 0.00 | 0.00 | 81 | 1012.6 |
| 20260507184557 | 54 | 346 | 0.9 | 2.6 | 0.00 | 0.00 | 0.00 | 80 | 1012.6 |
| 20260507183104 | 54 | 326 | 0.0 | 4.3 | 0.00 | 0.00 | 0.00 | 79 | 1012.6 |
| 20260507181556 | 55 | 327 | 0.9 | 6.1 | 0.00 | 0.00 | 0.00 | 77 | 1012.4 |
| 20260507180056 | 55 | 169 | 0.9 | 6.1 | 0.00 | 0.00 | 0.00 | 76 | 1012.2 |
| 20260507174606 | 55 | 160 | 2.6 | 5.2 | 0.00 | 0.00 | 0.00 | 76 | 1012.2 |
| 20260507173100 | 56 | 155 | 1.7 | 5.2 | 0.00 | 0.00 | 0.00 | 76 | 1012.2 |
| 20260507171610 | 56 | 159 | 3.5 | 6.1 | 0.00 | 0.00 | 0.00 | 76 | 1012.3 |
| 20260507170056 | 55 | 172 | 4.3 | 8.7 | 0.00 | 0.00 | 0.00 | 75 | 1012.3 |
| 20260507164605 | 55 | 164 | 6.1 | 8.7 | 0.00 | 0.00 | 0.00 | 74 | 1012.4 |
| 20260507163052 | 57 | 159 | 4.3 | 8.7 | 0.00 | 0.00 | 0.00 | 74 | 1012.4 |
| 20260507161553 | 58 | 176 | 5.2 | 8.7 | 0.00 | 0.00 | 0.00 | 72 | 1012.1 |
| 20260507160050 | 57 | 154 | 5.2 | 7.8 | 0.00 | 0.00 | 0.00 | 73 | 1012.1 |
| 20260507154548 | 57 | 209 | 2.6 | 7.8 | 0.00 | 0.00 | 0.00 | 74 | 1012.2 |
| 20260507153049 | 57 | 161 | 4.3 | 8.7 | 0.00 | 0.00 | 0.00 | 73 | 1012.3 |
| 20260507151545 | 57 | 133 | 3.5 | 10.4 | 0.00 | 0.00 | 0.00 | 73 | 1012.4 |
| 20260507150045 | 57 | 136 | 2.6 | 8.7 | 0.00 | 0.00 | 0.00 | 73 | 1012.5 |
| 20260507144544 | 57 | 166 | 3.5 | 7.8 | 0.00 | 0.00 | 0.00 | 73 | 1012.6 |
| 20260507143045 | 57 | 176 | 4.3 | 7.8 | 0.00 | 0.00 | 0.00 | 72 | 1012.6 |
| 20260507141548 | 56 | 170 | 4.3 | 7.0 | 0.00 | 0.00 | 0.00 | 73 | 1012.8 |
| 20260507140042 | 56 | 147 | 1.7 | 8.7 | 0.00 | 0.00 | 0.00 | 71 | 1012.8 |
| 20260507134551 | 56 | 138 | 4.3 | 9.6 | 0.00 | 0.00 | 0.00 | 70 | 1012.5 |
| 20260507133040 | 57 | 155 | 6.1 | 9.6 | 0.00 | 0.00 | 0.00 | 69 | 1012.6 |
| 20260507131540 | 56 | 171 | 2.6 | 4.3 | 0.00 | 0.00 | 0.00 | 72 | 1012.7 |
| 20260507130041 | 56 | 182 | 4.3 | 8.7 | 0.00 | 0.00 | 0.00 | 72 | 1012.7 |
| 20260507124537 | 56 | 165 | 4.3 | 7.8 | 0.00 | 0.00 | 0.00 | 72 | 1012.7 |
| 20260507123037 | 56 | 175 | 3.5 | 6.1 | 0.00 | 0.00 | 0.00 | 73 | 1012.9 |
| 20260507121535 | 56 | 195 | 4.3 | 7.0 | 0.00 | 0.00 | 0.00 | 71 | 1012.9 |
| 20260507120034 | 57 | 181 | 2.6 | 5.2 | 0.00 | 0.00 | 0.00 | 68 | 1013.1 |
| 20260507114536 | 57 | 100 | 1.7 | 7.0 | 0.00 | 0.00 | 0.00 | 71 | 1013.1 |
| 20260507113031 | 56 | 105 | 0.0 | 8.7 | 0.00 | 0.00 | 0.00 | 73 | 1013.1 |
| 20260507111531 | 57 | 100 | 5.2 | 8.7 | 0.00 | 0.00 | 0.00 | 76 | 1013.2 |
| 20260507110033 | 55 | 178 | 0.0 | 6.1 | 0.00 | 0.00 | 0.00 | 77 | 1013.5 |
| 20260507104526 | 55 | 171 | 0.0 | 7.0 | 0.00 | 0.00 | 0.00 | 80 | 1013.6 |
| 20260507103027 | 53 | 45 | 1.7 | 3.5 | 0.00 | 0.00 | 0.00 | 83 | 1013.7 |
| 20260507101520 | 52 | 89 | 2.6 | 6.1 | 0.00 | 0.00 | 0.00 | 85 | 1014.0 |
| 20260507100012 | 51 | 121 | 1.7 | 6.1 | 0.00 | 0.00 | 0.00 | 87 | 1014.0 |
| 20260507094509 | 49 | 113 | 0.9 | 3.5 | 0.00 | 0.00 | 0.00 | 88 | 1013.9 |
| 20260507093005 | 48 | 109 | 0.9 | 5.2 | 0.00 | 0.00 | 0.00 | 89 | 1014.0 |
| 20260507091502 | 48 | 113 | 1.7 | 4.3 | 0.00 | 0.00 | 0.00 | 90 | 1014.0 |
| 20260507090108 | 47 | 120 | 0.9 | 3.5 | 0.00 | 0.00 | 0.00 | 90 | 1014.1 |
| 20260507084559 | 47 | 107 | 0.0 | 3.5 | 0.00 | 0.00 | 0.00 | 91 | 1014.0 |
| 20260507083056 | 46 | 98 | 0.0 | 2.6 | 0.00 | 0.00 | 0.00 | 92 | 1014.2 |
| 20260507081556 | 46 | 113 | 0.0 | 2.6 | 0.00 | 0.00 | 0.00 | 92 | 1014.1 |
| 20260507080054 | 45 | 100 | 0.0 | 2.6 | 0.00 | 0.00 | 0.00 | 92 | 1014.0 |
| 20260507074554 | 45 | 95 | 0.9 | 2.6 | 0.00 | 0.00 | 0.00 | 93 | 1014.2 |
| 20260507073053 | 44 | 94 | 0.9 | 2.6 | 0.00 | 0.00 | 0.00 | 93 | 1014.0 |
| 20260507071556 | 44 | 94 | 0.0 | 2.6 | 0.00 | 0.00 | 0.00 | 93 | 1014.0 |
| 20260507070100 | 44 | 96 | 1.7 | 3.5 | 0.00 | 0.00 | 0.00 | 93 | 1013.7 |
| 20260507064549 | 44 | 105 | 0.0 | 2.6 | 0.00 | 0.00 | 0.00 | 93 | 1013.6 |
| 20260507063049 | 44 | 94 | 0.0 | 2.6 | 0.00 | 0.00 | 0.00 | 94 | 1013.6 |
| 20260507061544 | 43 | 94 | 0.0 | 1.7 | 0.00 | 0.00 | 0.00 | 94 | 1013.6 |
| 20260507060101 | 43 | 92 | 0.9 | 2.6 | 0.00 | 0.00 | 0.00 | 93 | 1013.5 |
| 20260507054546 | 43 | 91 | 0.0 | 1.7 | 0.00 | 0.00 | 0.00 | 93 | 1013.5 |
| 20260507053049 | 43 | 90 | 0.0 | 1.7 | 0.00 | 0.00 | 0.00 | 93 | 1013.4 |
| 20260507051542 | 43 | 90 | 0.9 | 3.5 | 0.00 | 0.00 | 0.00 | 93 | 1013.5 |
| 20260507050042 | 43 | 106 | 0.0 | 1.7 | 0.00 | 0.00 | 0.00 | 93 | 1013.4 |
| 20260507044539 | 43 | 107 | 0.0 | 1.7 | 0.00 | 0.00 | 0.00 | 93 | 1013.5 |
| 20260507043037 | 43 | 107 | 0.0 | 1.7 | 0.00 | 0.00 | 0.00 | 92 | 1013.3 |
| 20260507041538 | 43 | 107 | 0.0 | 2.6 | 0.00 | 0.00 | 0.00 | 92 | 1013.3 |